Other Public Products
Issued by NWS Charleston, SC

Home | Current Version | Previous Version | Text Only | Print | Product List | Glossary On
Versions: 1 2 3 4 5 6 7 8 9 10 11 12 13 14 15 16 17 18 19 20 21 22 23 24 25 26 27 28 29 30 31 32 33 34 35 36 37 38 39 40 41 42 43 44 45 46 47 48 49 50
444
FPUS82 KCHS 272127
OPUCHS

TEST...KCHS/KSAV Gateway Observations...TEST
National Weather Service Charleston SC
500 PM EDT THU APR 27 2017

NOTE: "fair" indicates few or no clouds below 12,000 feet with no
significant weather and/or obstructions to visibility.

SCZ050-WAZ558-NCZ071-TXZ119-213-PAZ071-DCZ001-FLZ074-172-MI076-
NYZ176-178-MAZ016-IL014-TNZ027-NJZ106-GAZ044-MD014-272200-

...Gateway Observations for Charleston International...

CITY           SKY/WX    TMP DP  RH WIND       PRES   REMARKS
Chas Airport   CLOUDY    83  60  45 S21       29.90R
Seattle        LGT RAIN  49  41  74 S15G23    30.07S
Charlotte      RAIN      73  64  73 S12       29.87S
Dallas DFW     MOSUNNY   75  47  36 SE21G28   29.65F
Dallas Love    MOSUNNY   75  47  36 SE21G26   29.66F
Philladelphia  CLOUDY    78  63  59 S7        29.81S
Wash National  PTSUNNY   79  64  60 S15       29.76R
Baltimore      PTSUNNY   80  65  59 SE12      29.76F
Miami          MOSUNNY   87  72  60 SE13      29.92F HX  93
Detroit        MOSUNNY   66  48  52 SW22      29.60R
Newark         CLOUDY    63  56  78 SE9       29.87S
Laguardia      CLOUDY    67  57  70 SE17      29.87S
J F K          CLOUDY    61  58  90 SE14      29.90S
Boston Logan   PTSUNNY   54  51  90 E13       29.92R
Ft. Lauderdale MOSUNNY   86  75  69 SE20      29.91F HX  95
Chicago O`Hare CLOUDY    46  37  71 W17G30    29.68R
Chicago Midway CLOUDY    47  39  74 SW12G21   29.70R
Houston Bush   MOSUNNY   79  50  36 S12G17    29.73F
Houston Hobby  MOSUNNY   77  55  46 E8        29.72F
Nashville      MOSUNNY   71  52  50 VRB7      29.82S
Atlanta        MOSUNNY   79  67  66 SW13      29.81S

$$

GAZ044-118-TXZ119-213-NCZ071-DCZ001-MDZ014-506-PAZ021-071-NJZ106-
NYZ176-178-MAZ106-OHZ011-021-055-MIZ076-KYZ091-ILZ014-INZ047-
MNZ060-ONZ431-272200-

...Gateway Observations for Savannah International...

CITY           SKY/WX    TMP DP  RH WIND       PRES   REMARKS
Savannah Arpt  PTSUNNY   88  58  36 S22       29.86S
Atlanta        MOSUNNY   79  67  66 SW13      29.81S
Charlotte      RAIN      73  64  73 S12       29.87S
Dallas DFW     MOSUNNY   75  47  36 SE21G28   29.65F
Houston Bush   MOSUNNY   79  50  36 S12G17    29.73F
Wash National  PTSUNNY   79  64  60 S15       29.76R
Wash Dulles    PTSUNNY   82  58  43 S17G25    29.74F
Baltimore      PTSUNNY   80  65  59 SE12      29.76F
Philadelphia   CLOUDY    78  63  59 S7        29.81S
Newark         CLOUDY    63  56  78 SE9       29.87S
Laguardia      CLOUDY    67  57  70 SE17      29.87S
J F K          CLOUDY    61  58  90 SE14      29.90S
Boston         PTSUNNY   54  51  90 E13       29.92R
Pittsburg      LGT RAIN  72  59  63 SW20G26   29.67R
Akron          PTSUNNY   76  58  53 SW17      29.62S
Cleveland      PTSUNNY   70  54  56 W15G30    29.64R THUNDER
Cincinnati     PTSUNNY   62  49  62 W16G24    29.77R
Columbus       MOSUNNY   71  57  61 W23G31    29.68R
Detroit        MOSUNNY   66  48  52 SW22      29.60R
Chicago O`Hare CLOUDY    46  37  71 W17G30    29.68R
Minneapolis    CLOUDY    35  24  64 W16       29.62R WCI  25
Indianapolis   CLOUDY    55  45  68 W16G23    29.77R
Toronto Canada PTSUNNY   77  59  53 SE10      29.50F

$$




USA.gov is the U.S. government's official web portal to all federal, state and local government web resources and services.